�������l�o���
Date,Time,MP-1(��Sv/h),MP-2(��Sv/h),MP-3(��Sv/h),MP-4(��Sv/h),MP-5(��Sv/h),MP-6(��Sv/h),MP-7(��Sv/h),MP-8(��Sv/h),����,����(m/s),���J
2017/11/12,00:00,0.921,1.484,0.940,1.757,1.208,0.503,0.918,0.852,���k��,6.6,��
2017/11/12,00:10,0.922,1.486,0.938,1.758,1.210,0.502,0.917,0.853,��,6.1,��
2017/11/12,00:20,0.922,1.486,0.939,1.760,1.211,0.505,0.917,0.852,��,5.3,��
2017/11/12,00:30,0.922,1.485,0.939,1.758,1.210,0.502,0.918,0.852,���쐼,2.2,��
2017/11/12,00:40,0.922,1.484,0.938,1.758,1.209,0.503,0.918,0.852,�k��,1.9,��
2017/11/12,00:50,0.921,1.487,0.939,1.758,1.210,0.502,0.917,0.851,�k��,2.6,��
2017/11/12,01:00,0.921,1.485,0.939,1.757,1.210,0.501,0.916,0.852,�k�k��,3.1,��
2017/11/12,01:10,0.920,1.485,0.938,1.757,1.210,0.504,0.917,0.853,�k�k��,3.5,��
2017/11/12,01:20,0.920,1.485,0.938,1.758,1.210,0.502,0.917,0.851,�k�k��,2.8,��
2017/11/12,01:30,0.922,1.486,0.937,1.755,1.207,0.502,0.917,0.852,�k��,2.6,��
2017/11/12,01:40,0.920,1.486,0.937,1.756,1.209,0.504,0.918,0.853,�k��,3.1,��
2017/11/12,01:50,0.922,1.484,0.937,1.757,1.212,0.502,0.918,0.853,�k��,2.2,��
2017/11/12,02:00,0.921,1.485,0.938,1.757,1.211,0.502,0.918,0.852,�k�k��,2.2,��
2017/11/12,02:10,0.919,1.486,0.937,1.754,1.209,0.503,0.919,0.851,�k��,3.1,��
2017/11/12,02:20,0.921,1.487,0.937,1.758,1.209,0.502,0.919,0.855,�k�k��,3.7,��
2017/11/12,02:30,0.920,1.485,0.938,1.758,1.209,0.503,0.916,0.854,�k��,3.9,��
2017/11/12,02:40,0.920,1.487,0.937,1.757,1.207,0.503,0.916,0.853,�k��,3.7,��
2017/11/12,02:50,0.920,1.484,0.938,1.755,1.211,0.503,0.914,0.853,�k��,4.1,��
2017/11/12,03:00,0.918,1.484,0.935,1.756,1.210,0.502,0.917,0.852,�k�k��,4.9,��
2017/11/12,03:10,0.920,1.483,0.935,1.756,1.210,0.500,0.917,0.853,�k�k��,5.1,��
2017/11/12,03:20,0.920,1.484,0.937,1.757,1.208,0.503,0.917,0.852,�k�k��,5.3,��
2017/11/12,03:30,0.921,1.483,0.935,1.755,1.209,0.503,0.915,0.852,�k��,5.2,��
2017/11/12,03:40,0.923,1.483,0.936,1.755,1.209,0.501,0.916,0.851,�k��,5.0,��
2017/11/12,03:50,0.923,1.484,0.938,1.756,1.207,0.502,0.917,0.854,�k��,6.3,��
2017/11/12,04:00,0.923,1.484,0.937,1.756,1.205,0.503,0.915,0.852,�k��,6.5,��
2017/11/12,04:10,0.920,1.484,0.937,1.756,1.208,0.501,0.916,0.853,���k��,4.3,��
2017/11/12,04:20,0.920,1.485,0.936,1.756,1.209,0.501,0.914,0.852,���쐼,2.6,��
2017/11/12,04:30,0.922,1.483,0.935,1.755,1.208,0.501,0.915,0.851,���쐼,1.7,��
2017/11/12,04:40,0.921,1.484,0.938,1.753,1.207,0.502,0.916,0.851,���쐼,2.0,��
2017/11/12,04:50,0.921,1.485,0.937,1.755,1.209,0.503,0.916,0.853,���쐼,3.3,��
2017/11/12,05:00,0.921,1.485,0.936,1.758,1.209,0.502,0.917,0.853,���쐼,3.1,��
2017/11/12,05:10,0.920,1.484,0.935,1.759,1.209,0.503,0.916,0.852,���쐼,3.3,��
2017/11/12,05:20,0.920,1.483,0.936,1.756,1.208,0.502,0.915,0.851,�쐼,2.0,��
2017/11/12,05:30,0.923,1.485,0.937,1.757,1.207,0.503,0.916,0.852,���쐼,2.5,��
2017/11/12,05:40,0.919,1.484,0.935,1.755,1.210,0.500,0.916,0.851,���쐼,2.5,��
2017/11/12,05:50,0.921,1.482,0.938,1.757,1.212,0.503,0.917,0.853,���k��,2.5,��
2017/11/12,06:00,0.922,1.483,0.938,1.757,1.209,0.502,0.917,0.853,��,2.9,��
2017/11/12,06:10,0.920,1.485,0.940,1.759,1.208,0.502,0.917,0.850,��,2.3,��
2017/11/12,06:20,0.922,1.483,0.937,1.754,1.209,0.500,0.917,0.852,��,1.5,��
2017/11/12,06:30,0.921,1.485,0.937,1.755,1.206,0.501,0.917,0.852,���k��,2.3,��
2017/11/12,06:40,0.920,1.487,0.938,1.755,1.206,0.503,0.918,0.853,��,2.3,��
2017/11/12,06:50,0.922,1.483,0.938,1.753,1.208,0.502,0.918,0.853,���쐼,2.6,��
2017/11/12,07:00,0.921,1.485,0.939,1.757,1.208,0.501,0.917,0.851,���쐼,2.5,��
2017/11/12,07:10,0.920,1.484,0.937,1.759,1.208,0.502,0.916,0.852,��,2.5,��
2017/11/12,07:20,0.920,1.485,0.937,1.758,1.208,0.501,0.919,0.851,��,3.0,��
2017/11/12,07:30,0.921,1.486,0.938,1.758,1.206,0.501,0.915,0.851,��,3.4,��
2017/11/12,07:40,0.920,1.483,0.938,1.757,1.207,0.502,0.917,0.854,���k��,4.6,��
2017/11/12,07:50,0.922,1.485,0.937,1.758,1.208,0.503,0.917,0.851,���k��,5.9,��
2017/11/12,08:00,0.922,1.484,0.938,1.759,1.207,0.501,0.918,0.855,���k��,6.1,��
2017/11/12,08:10,0.924,1.486,0.940,1.757,1.208,0.504,0.917,0.852,���k��,6.5,��
2017/11/12,08:20,0.922,1.486,0.940,1.756,1.208,0.501,0.916,0.854,���k��,6.2,��
2017/11/12,08:30,0.922,1.489,0.939,1.758,1.209,0.502,0.918,0.853,���k��,4.7,��
2017/11/12,08:40,0.921,1.488,0.939,1.758,1.209,0.502,0.918,0.853,���k��,3.0,��
2017/11/12,08:50,0.925,1.490,0.941,1.759,1.209,0.503,0.919,0.854,�k��,2.9,��
2017/11/12,09:00,0.924,1.488,0.939,1.758,1.208,0.503,0.917,0.854,���k��,4.6,��
2017/11/12,09:10,0.923,1.487,0.939,1.758,1.212,0.505,0.916,0.853,�k��,6.6,��
2017/11/12,09:20,0.927,1.487,0.939,1.760,1.210,0.503,0.918,0.854,�k��,6.7,��
2017/11/12,09:30,0.926,1.489,0.941,1.759,1.211,0.504,0.918,0.855,���k��,7.0,��
2017/11/12,09:40,0.924,1.489,0.940,1.759,1.211,0.504,0.915,0.856,���k��,8.9,��
2017/11/12,09:50,0.924,1.487,0.939,1.762,1.213,0.502,0.917,0.853,���k��,7.5,��
2017/11/12,10:00,0.923,1.487,0.941,1.760,1.211,0.503,0.918,0.854,���k��,6.6,��
2017/11/12,10:10,0.923,1.488,0.942,1.764,1.213,0.503,0.916,0.856,���k��,7.2,��
2017/11/12,10:20,0.925,1.486,0.941,1.760,1.213,0.504,0.917,0.856,���k��,9.2,��
2017/11/12,10:30,0.926,1.487,0.943,1.762,1.210,0.505,0.917,0.854,���k��,8.0,��
2017/11/12,10:40,0.925,1.489,0.943,1.763,1.214,0.503,0.917,0.857,���k��,10.0,��
2017/11/12,10:50,0.926,1.489,0.942,1.758,1.212,0.504,0.917,0.855,���k��,9.7,��
2017/11/12,11:00,0.924,1.489,0.942,1.764,1.213,0.502,0.915,0.855,���k��,10.0,��
2017/11/12,11:10,0.924,1.487,0.943,1.768,1.208,0.503,0.916,0.854,�k��,9.6,��
2017/11/12,11:20,0.923,1.489,0.942,1.765,1.208,0.503,0.917,0.855,���k��,8.3,��
2017/11/12,11:30,0.924,1.488,0.942,1.764,1.211,0.502,0.917,0.855,���k��,10.3,��
2017/11/12,11:40,0.924,1.486,0.941,1.766,1.210,0.502,0.918,0.856,�k��,8.9,��
2017/11/12,11:50,0.925,1.487,0.938,1.762,1.212,0.505,0.919,0.857,�k��,8.7,��
2017/11/12,12:00,0.924,1.489,0.941,1.764,1.209,0.503,0.919,0.855,�k��,10.2,��
2017/11/12,12:10,0.924,1.490,0.942,1.764,1.214,0.505,0.915,0.857,�k��,8.2,��
2017/11/12,12:20,0.923,1.486,0.942,1.765,1.213,0.506,0.915,0.855,�k��,8.1,��
2017/11/12,12:30,0.925,1.488,0.942,1.765,1.212,0.505,0.918,0.856,���k��,8.4,��
2017/11/12,12:40,0.923,1.489,0.943,1.766,1.213,0.506,0.916,0.855,�k��,3.5,��
2017/11/12,12:50,0.923,1.489,0.942,1.765,1.210,0.505,0.918,0.854,�k��,7.1,��
2017/11/12,13:00,0.925,1.491,0.940,1.768,1.211,0.506,0.917,0.853,�k��,8.5,��
2017/11/12,13:10,0.922,1.487,0.943,1.765,1.210,0.505,0.919,0.853,���k��,7.6,��
2017/11/12,13:20,0.922,1.487,0.943,1.766,1.211,0.506,0.916,0.852,���k��,6.9,��
2017/11/12,13:30,0.924,1.491,0.943,1.769,1.213,0.504,0.919,0.851,�k��,6.8,��
2017/11/12,13:40,0.923,1.490,0.942,1.765,1.215,0.506,0.918,0.851,�k��,6.5,��
2017/11/12,13:50,0.924,1.489,0.944,1.768,1.212,0.507,0.917,0.851,�k��,4.9,��
2017/11/12,14:00,0.926,1.491,0.944,1.765,1.213,0.505,0.918,0.852,�k��,6.7,��
2017/11/12,14:10,0.924,1.492,0.944,1.767,1.210,0.504,0.918,0.852,�k��,6.7,��
2017/11/12,14:20,0.923,1.490,0.945,1.768,1.214,0.506,0.920,0.851,�k��,4.8,��
2017/11/12,14:30,0.923,1.489,0.943,1.767,1.212,0.505,0.920,0.852,�k��,5.5,��
2017/11/12,14:40,0.924,1.486,0.944,1.768,1.213,0.504,0.918,0.852,�k��,5.7,��
2017/11/12,14:50,0.923,1.488,0.943,1.766,1.214,0.505,0.918,0.853,�k�k��,4.4,��
2017/11/12,15:00,0.925,1.492,0.944,1.769,1.214,0.505,0.919,0.854,�k��,4.8,��
2017/11/12,15:10,0.924,1.493,0.943,1.768,1.211,0.505,0.920,0.854,�k��,4.6,��
2017/11/12,15:20,0.922,1.493,0.943,1.766,1.214,0.504,0.918,0.856,�k��,4.8,��
2017/11/12,15:30,0.921,1.493,0.945,1.767,1.210,0.504,0.919,0.855,�k��,5.5,��
2017/11/12,15:40,0.925,1.494,0.945,1.768,1.212,0.506,0.919,0.856,�k��,5.1,��
2017/11/12,15:50,0.924,1.492,0.945,1.765,1.213,0.505,0.918,0.854,�k��,4.4,��
2017/11/12,16:00,0.924,1.493,0.946,1.767,1.210,0.504,0.918,0.855,�k��,6.0,��
2017/11/12,16:10,0.926,1.495,0.943,1.766,1.211,0.504,0.921,0.855,�k��,5.6,��
2017/11/12,16:20,0.925,1.494,0.946,1.768,1.212,0.504,0.919,0.855,�k��,5.4,��
2017/11/12,16:30,0.925,1.491,0.943,1.765,1.212,0.503,0.920,0.856,�k��,5.3,��
2017/11/12,16:40,0.925,1.489,0.942,1.765,1.215,0.503,0.919,0.853,�k��,5.4,��
2017/11/12,16:50,0.925,1.490,0.944,1.764,1.214,0.504,0.920,0.854,�k��,4.3,��
2017/11/12,17:00,0.925,1.493,0.940,1.762,1.213,0.503,0.919,0.854,�k��,3.9,��
2017/11/12,17:10,0.925,1.492,0.942,1.766,1.213,0.504,0.917,0.852,�k��,2.9,��
2017/11/12,17:20,0.924,1.490,0.942,1.762,1.212,0.504,0.917,0.852,�k��,2.6,��
2017/11/12,17:30,0.923,1.490,0.942,1.762,1.215,0.502,0.921,0.854,�k��,2.5,��
2017/11/12,17:40,0.925,1.490,0.940,1.765,1.214,0.503,0.918,0.852,�k��,2.0,��
2017/11/12,17:50,0.922,1.491,0.942,1.764,1.214,0.504,0.918,0.852,�k��,2.8,��
2017/11/12,18:00,0.923,1.490,0.940,1.764,1.213,0.502,0.918,0.854,�k��,3.3,��
2017/11/12,18:10,0.923,1.489,0.941,1.766,1.214,0.503,0.917,0.854,�k��,3.6,��
2017/11/12,18:20,0.924,1.488,0.942,1.762,1.215,0.502,0.916,0.853,�k��,3.5,��
2017/11/12,18:30,0.923,1.491,0.941,1.764,1.210,0.501,0.916,0.853,���k��,3.8,��
2017/11/12,18:40,0.924,1.488,0.942,1.764,1.214,0.502,0.917,0.854,�k��,4.4,��
2017/11/12,18:50,0.923,1.490,0.941,1.762,1.210,0.503,0.919,0.852,�k��,4.5,��
2017/11/12,19:00,0.921,1.489,0.940,1.763,1.215,0.502,0.917,0.852,���k��,4.5,��
2017/11/12,19:10,0.922,1.488,0.939,1.759,1.212,0.502,0.918,0.852,�k��,4.6,��
2017/11/12,19:20,0.922,1.489,0.942,1.763,1.212,0.502,0.917,0.854,���k��,5.6,��
2017/11/12,19:30,0.922,1.488,0.939,1.764,1.212,0.502,0.915,0.854,���k��,6.2,��
2017/11/12,19:40,0.919,1.491,0.938,1.764,1.214,0.501,0.918,0.852,���k��,5.2,��
2017/11/12,19:50,0.922,1.489,0.941,1.764,1.212,0.502,0.917,0.852,���k��,5.1,��
2017/11/12,20:00,0.920,1.489,0.941,1.762,1.212,0.501,0.916,0.853,��,5.1,��
2017/11/12,20:10,0.922,1.492,0.940,1.763,1.212,0.501,0.917,0.852,���k��,5.9,��
2017/11/12,20:20,0.921,1.488,0.941,1.764,1.213,0.501,0.918,0.851,���k��,5.8,��
2017/11/12,20:30,0.922,1.490,0.940,1.759,1.211,0.502,0.915,0.852,���k��,6.9,��
2017/11/12,20:40,0.922,1.489,0.939,1.762,1.211,0.502,0.915,0.851,���k��,8.0,��
2017/11/12,20:50,0.924,1.489,0.939,1.762,1.212,0.501,0.916,0.853,���k��,8.3,��
2017/11/12,21:00,0.920,1.488,0.941,1.763,1.213,0.501,0.916,0.854,���k��,6.9,��
2017/11/12,21:10,0.922,1.490,0.940,1.763,1.212,0.501,0.918,0.851,�k��,5.7,��
2017/11/12,21:20,0.922,1.489,0.939,1.765,1.212,0.501,0.916,0.852,�k��,5.3,��
2017/11/12,21:30,0.923,1.489,0.941,1.764,1.213,0.501,0.918,0.851,���k��,4.9,��
2017/11/12,21:40,0.922,1.489,0.941,1.766,1.212,0.500,0.917,0.851,���k��,5.3,��
2017/11/12,21:50,0.920,1.490,0.940,1.762,1.212,0.501,0.917,0.851,���k��,3.7,��
2017/11/12,22:00,0.920,1.488,0.941,1.758,1.213,0.501,0.918,0.852,�k��,4.2,��
2017/11/12,22:10,0.921,1.488,0.941,1.758,1.210,0.501,0.917,0.851,�k��,4.5,��
2017/11/12,22:20,0.923,1.488,0.940,1.760,1.210,0.501,0.917,0.852,�k��,4.8,��
2017/11/12,22:30,0.923,1.487,0.939,1.759,1.210,0.501,0.916,0.853,���k��,4.3,��
2017/11/12,22:40,0.920,1.488,0.939,1.759,1.211,0.501,0.916,0.852,���k��,4.3,��
2017/11/12,22:50,0.922,1.489,0.940,1.760,1.213,0.503,0.916,0.852,���k��,5.3,��
2017/11/12,23:00,0.922,1.488,0.939,1.763,1.210,0.501,0.915,0.852,���k��,5.4,��
2017/11/12,23:10,0.922,1.486,0.940,1.762,1.211,0.502,0.916,0.851,���k��,4.8,��
2017/11/12,23:20,0.924,1.487,0.940,1.761,1.212,0.502,0.917,0.852,�k��,5.8,��
2017/11/12,23:30,0.922,1.487,0.940,1.761,1.211,0.500,0.915,0.852,�k��,5.2,��
2017/11/12,23:40,0.924,1.487,0.940,1.763,1.212,0.501,0.915,0.852,�k��,4.4,��
2017/11/12,23:50,0.922,1.486,0.941,1.763,1.210,0.500,0.915,0.853,�k��,3.5,��
